| time (UTC) | temp C | wind direction | speed KPH | gust KPH | rain 1hr cm | rain 24hr cm | rain mn cm | humidity % | barometer mb |
| 20260506192640 | 7 | 66 | 3.2 | 4.8 | 0.43 | 3.45 | 3.45 | 99 | 1011.0 |
| 20260506192136 | 7 | 181 | 1.6 | 3.2 | 0.43 | 3.40 | 3.40 | 99 | 1010.9 |
| 20260506191634 | 7 | 180 | 0.0 | 1.6 | 0.48 | 3.38 | 3.38 | 99 | 1010.8 |
| 20260506191129 | 7 | 334 | 6.4 | 9.7 | 0.36 | 3.33 | 3.33 | 99 | 1010.8 |
| 20260506190627 | 7 | 179 | 0.0 | 1.6 | 0.30 | 3.30 | 3.30 | 99 | 1010.7 |
| 20260506190124 | 7 | 262 | 3.2 | 4.8 | 0.30 | 3.28 | 3.28 | 99 | 1010.7 |
| 20260506185621 | 7 | 171 | 0.0 | 1.6 | 0.79 | 3.25 | 3.25 | 99 | 1010.7 |
| 20260506185117 | 7 | 168 | 0.0 | 0.0 | 1.02 | 3.23 | 3.23 | 99 | 1010.7 |
| 20260506184614 | 7 | 190 | 3.2 | 3.2 | 0.79 | 3.15 | 3.15 | 99 | 1010.9 |
| 20260506184112 | 8 | 132 | 3.2 | 4.8 | 0.48 | 3.05 | 3.05 | 99 | 1010.9 |
| 20260506183608 | 8 | 125 | 1.6 | 1.6 | 0.79 | 3.02 | 3.02 | 99 | 1010.7 |
| 20260506183104 | 8 | 142 | 1.6 | 3.2 | 1.07 | 2.97 | 2.97 | 99 | 1010.8 |
| 20260506182602 | 8 | 175 | 1.6 | 3.2 | 0.71 | 2.90 | 2.90 | 99 | 1010.6 |
| 20260506182059 | 8 | 18 | 1.6 | 1.6 | 0.48 | 2.82 | 2.82 | 99 | 1011.0 |
| 20260506181557 | 8 | 177 | 1.6 | 1.6 | 0.79 | 2.77 | 2.77 | 99 | 1010.6 |
| 20260506181053 | 8 | 145 | 1.6 | 1.6 | 1.07 | 2.74 | 2.74 | 99 | 1010.7 |
| 20260506180550 | 8 | 193 | 0.0 | 1.6 | 1.07 | 2.64 | 2.64 | 99 | 1011.0 |
| 20260506180047 | 8 | 190 | 1.6 | 3.2 | 1.37 | 2.57 | 2.57 | 99 | 1010.4 |
| 20260506175543 | 8 | 177 | 3.2 | 4.8 | 1.27 | 2.49 | 2.49 | 99 | 1010.5 |
| 20260506175039 | 8 | 193 | 0.0 | 0.0 | 0.61 | 2.34 | 2.34 | 99 | 1010.8 |
| 20260506174538 | 8 | 154 | 1.6 | 1.6 | 0.61 | 2.29 | 2.29 | 99 | 1010.8 |
| 20260506174034 | 8 | 193 | 1.6 | 3.2 | 0.43 | 2.24 | 2.24 | 99 | 1010.6 |
| 20260506173532 | 8 | 180 | 0.0 | 0.0 | 0.30 | 2.18 | 2.18 | 99 | 1010.7 |
| 20260506173028 | 8 | 182 | 0.0 | 0.0 | 1.07 | 2.16 | 2.16 | 99 | 1010.7 |
| 20260506172526 | 8 | 173 | 0.0 | 1.6 | 1.68 | 2.13 | 2.13 | 99 | 1010.6 |
| 20260506172022 | 8 | 208 | 0.0 | 0.0 | 1.07 | 1.98 | 1.98 | 99 | 1011.1 |
| 20260506171519 | 8 | 167 | 0.0 | 1.6 | 0.61 | 1.88 | 1.88 | 99 | 1011.0 |
| 20260506171017 | 8 | 186 | 0.0 | 0.0 | 0.30 | 1.80 | 1.80 | 99 | 1010.9 |
| 20260506170514 | 8 | 158 | 0.0 | 0.0 | 0.48 | 1.78 | 1.78 | 99 | 1010.8 |
| 20260506170006 | 8 | 179 | 0.0 | 1.6 | 0.48 | 1.75 | 1.75 | 99 | 1010.9 |
| 20260506165504 | 8 | 149 | 0.0 | 1.6 | 0.36 | 1.73 | 1.73 | 99 | 1011.2 |
| 20260506165000 | 8 | 354 | 4.8 | 8.0 | 0.13 | 1.68 | 1.68 | 99 | 1011.1 |
| 20260506164457 | 8 | 188 | 0.0 | 0.0 | 0.30 | 1.68 | 1.68 | 99 | 1011.0 |
| 20260506163954 | 8 | 191 | 0.0 | 0.0 | 0.30 | 1.65 | 1.65 | 99 | 1011.0 |
| 20260506163450 | 8 | 180 | 0.0 | 0.0 | 0.30 | 1.63 | 1.63 | 99 | 1011.0 |
| 20260506162944 | 8 | 201 | 0.0 | 0.0 | 0.79 | 1.60 | 1.60 | 99 | 1011.1 |
| 20260506162442 | 8 | 189 | 0.0 | 0.0 | 0.61 | 1.57 | 1.57 | 99 | 1011.0 |
| 20260506161934 | 8 | 150 | 0.0 | 0.0 | 0.13 | 1.47 | 1.47 | 99 | 1011.2 |
| 20260506161432 | 9 | 188 | 0.0 | 0.0 | 0.00 | 1.45 | 1.45 | 99 | 1011.4 |
| 20260506160929 | 8 | 173 | 1.6 | 1.6 | 0.36 | 1.45 | 1.45 | 99 | 1010.9 |
| 20260506160426 | 9 | 197 | 1.6 | 1.6 | 0.36 | 1.45 | 1.45 | 99 | 1011.5 |
| 20260506155923 | 9 | 191 | 0.0 | 0.0 | 0.48 | 1.42 | 1.42 | 99 | 1011.2 |
| 20260506155420 | 8 | 178 | 0.0 | 1.6 | 0.61 | 1.40 | 1.40 | 99 | 1011.3 |
| 20260506153543 | 8 | 163 | 1.6 | 3.2 | 0.48 | 1.22 | 1.22 | 99 | 1011.6 |
| 20260506153040 | 8 | 188 | 0.0 | 0.0 | 0.43 | 1.19 | 1.19 | 99 | 1011.6 |
| 20260506152537 | 8 | 188 | 0.0 | 0.0 | 0.48 | 1.14 | 1.14 | 99 | 1011.8 |
| 20260506152035 | 8 | 188 | 0.0 | 0.0 | 0.48 | 1.09 | 1.09 | 99 | 1011.9 |
| 20260506151532 | 8 | 182 | 1.6 | 1.6 | 0.43 | 1.07 | 1.07 | 99 | 1011.9 |
| 20260506151030 | 8 | 178 | 0.0 | 0.0 | 0.43 | 1.02 | 1.02 | 99 | 1011.9 |
| 20260506150526 | 9 | 189 | 0.0 | 0.0 | 0.30 | 0.97 | 0.97 | 99 | 1012.1 |
| 20260506150023 | 8 | 186 | 0.0 | 0.0 | 0.48 | 0.94 | 0.94 | 99 | 1012.0 |
| 20260506145519 | 8 | 2 | 3.2 | 4.8 | 0.43 | 0.91 | 0.91 | 99 | 1012.1 |
| 20260506145017 | 8 | 182 | 0.0 | 0.0 | 0.30 | 0.89 | 0.89 | 99 | 1012.2 |
| 20260506144513 | 9 | 184 | 0.0 | 0.0 | 0.30 | 0.86 | 0.86 | 99 | 1012.4 |
| 20260506144011 | 9 | 182 | 0.0 | 0.0 | 0.30 | 0.81 | 0.81 | 99 | 1012.5 |
| 20260506143509 | 10 | 189 | 0.0 | 0.0 | 0.36 | 0.79 | 0.79 | 99 | 1012.4 |
| 20260506143007 | 10 | 190 | 0.0 | 0.0 | 0.30 | 0.76 | 0.76 | 99 | 1012.3 |
| 20260506142504 | 10 | 182 | 0.0 | 0.0 | 0.48 | 0.76 | 0.76 | 99 | 1012.8 |
| 20260506142002 | 10 | 191 | 0.0 | 0.0 | 0.48 | 0.71 | 0.71 | 99 | 1012.7 |
| 20260506141500 | 10 | 189 | 0.0 | 0.0 | 0.43 | 0.69 | 0.69 | 99 | 1012.8 |
| 20260506140958 | 10 | 189 | 0.0 | 0.0 | 0.30 | 0.64 | 0.64 | 99 | 1012.6 |
| 20260506140455 | 10 | 187 | 0.0 | 0.0 | 0.30 | 0.61 | 0.61 | 99 | 1012.4 |
| 20260506135952 | 10 | 180 | 0.0 | 0.0 | 0.30 | 0.58 | 0.58 | 99 | 1012.5 |
| 20260506135449 | 10 | 190 | 0.0 | 0.0 | 0.30 | 0.56 | 0.56 | 99 | 1012.3 |
| 20260506134944 | 10 | 187 | 1.6 | 1.6 | 0.30 | 0.53 | 0.53 | 99 | 1012.2 |
| 20260506134441 | 10 | 194 | 0.0 | 0.0 | 0.30 | 0.51 | 0.51 | 99 | 1012.1 |
| 20260506133938 | 10 | 187 | 1.6 | 1.6 | 0.30 | 0.48 | 0.48 | 99 | 1012.3 |
| 20260506133435 | 10 | 185 | 0.0 | 0.0 | 0.36 | 0.46 | 0.46 | 99 | 1012.1 |
| 20260506132932 | 11 | 190 | 0.0 | 0.0 | 0.18 | 0.43 | 0.43 | 99 | 1012.2 |
| 20260506132429 | 10 | 190 | 0.0 | 0.0 | 0.13 | 0.41 | 0.41 | 99 | 1011.9 |
| 20260506131926 | 10 | 188 | 0.0 | 0.0 | 0.30 | 0.41 | 0.41 | 99 | 1012.1 |
| 20260506131422 | 11 | 171 | 1.6 | 1.6 | 0.18 | 0.38 | 0.38 | 99 | 1012.1 |
| 20260506130920 | 11 | 190 | 0.0 | 0.0 | 0.13 | 0.36 | 0.36 | 99 | 1012.4 |
| 20260506130416 | 11 | 186 | 0.0 | 0.0 | 0.30 | 0.36 | 0.36 | 99 | 1012.3 |
| 20260506125914 | 11 | 193 | 0.0 | 0.0 | 0.18 | 0.33 | 0.33 | 99 | 1012.3 |
| 20260506125412 | 11 | 190 | 0.0 | 0.0 | 0.30 | 0.33 | 0.33 | 99 | 1012.3 |
| 20260506124910 | 11 | 188 | 0.0 | 0.0 | 0.30 | 0.30 | 0.30 | 99 | 1012.1 |
| 20260506124407 | 12 | 185 | 0.0 | 0.0 | 0.30 | 0.28 | 0.28 | 99 | 1012.3 |
| 20260506123905 | 12 | 189 | 0.0 | 0.0 | 0.13 | 0.25 | 0.25 | 99 | 1012.2 |
| 20260506123403 | 12 | 181 | 1.6 | 1.6 | 0.30 | 0.25 | 0.25 | 99 | 1012.4 |
| 20260506122900 | 12 | 190 | 0.0 | 0.0 | 0.48 | 0.23 | 0.23 | 98 | 1012.3 |
| 20260506122356 | 12 | 195 | 0.0 | 0.0 | 0.30 | 0.20 | 0.20 | 98 | 1012.6 |
| 20260506121855 | 12 | 201 | 0.0 | 0.0 | 0.36 | 0.18 | 0.18 | 98 | 1012.8 |
| 20260506121352 | 12 | 190 | 0.0 | 0.0 | 0.30 | 0.15 | 0.15 | 98 | 1012.6 |
| 20260506120848 | 12 | 187 | 0.0 | 0.0 | 0.13 | 0.13 | 0.13 | 98 | 1012.9 |
| 20260506120346 | 12 | 184 | 0.0 | 0.0 | 0.18 | 0.10 | 0.10 | 98 | 1012.1 |
| 20260506115843 | 12 | 204 | 0.0 | 1.6 | 0.18 | 0.10 | 0.10 | 98 | 1012.4 |
| 20260506115342 | 12 | 197 | 0.0 | 0.0 | 0.13 | 0.08 | 0.08 | 98 | 1012.2 |
| 20260506114839 | 12 | 195 | 1.6 | 1.6 | 0.13 | 0.08 | 0.08 | 98 | 1012.4 |
| 20260506114337 | 12 | 192 | 0.0 | 0.0 | 0.00 | 0.05 | 0.05 | 98 | 1012.0 |
| 20260506113835 | 12 | 195 | 0.0 | 0.0 | 0.00 | 0.05 | 0.05 | 98 | 1012.2 |
| 20260506113332 | 12 | 163 | 1.6 | 1.6 | 0.00 | 0.05 | 0.05 | 98 | 1012.1 |
| 20260506112829 | 13 | 192 | 0.0 | 0.0 | 0.00 | 0.05 | 0.05 | 98 | 1012.4 |
| 20260506112326 | 12 | 191 | 0.0 | 0.0 | 0.18 | 0.05 | 0.05 | 98 | 1012.4 |
| 20260506111824 | 12 | 192 | 0.0 | 0.0 | 0.18 | 0.05 | 0.05 | 98 | 1012.2 |
| 20260506111322 | 12 | 192 | 0.0 | 0.0 | 0.00 | 0.03 | 0.03 | 98 | 1012.1 |
| 20260506110819 | 12 | 192 | 0.0 | 0.0 | 0.00 | 0.03 | 0.03 | 98 | 1011.9 |
| 20260506110316 | 12 | 204 | 0.0 | 0.0 | 0.00 | 0.03 | 0.03 | 98 | 1012.1 |
| 20260506105812 | 12 | 171 | 1.6 | 1.6 | 0.00 | 0.03 | 0.03 | 97 | 1012.0 |
| 20260506105309 | 12 | 216 | 1.6 | 1.6 | 0.00 | 0.03 | 0.03 | 97 | 1011.9 |
| 20260506104807 | 12 | 194 | 0.0 | 0.0 | 0.00 | 0.03 | 0.03 | 97 | 1012.1 |
| 20260506104304 | 12 | 210 | 1.6 | 1.6 | 0.00 | 0.03 | 0.03 | 96 | 1012.2 |
| 20260506103801 | 12 | 187 | 0.0 | 0.0 | 0.13 | 0.03 | 0.03 | 96 | 1011.9 |
| 20260506103259 | 12 | 197 | 0.0 | 0.0 | 0.13 | 0.03 | 0.03 | 95 | 1011.8 |
| 20260506102756 | 12 | 215 | 3.2 | 3.2 | 0.00 | 0.00 | 0.00 | 95 | 1012.0 |
| 20260506102254 | 12 | 172 | 0.0 | 1.6 | 0.00 | 0.00 | 0.00 | 95 | 1011.9 |
| 20260506101751 | 12 | 198 | 0.0 | 0.0 | 0.00 | 0.00 | 0.00 | 95 | 1012.0 |
| 20260506101247 | 12 | 202 | 0.0 | 1.6 | 0.00 | 0.00 | 0.00 | 95 | 1011.8 |
| 20260506100745 | 12 | 193 | 0.0 | 0.0 | 0.00 | 0.00 | 0.00 | 96 | 1011.9 |
| 20260506100243 | 12 | 232 | 1.6 | 3.2 | 0.00 | 0.00 | 0.00 | 96 | 1011.7 |
| 20260506095742 | 12 | 195 | 0.0 | 0.0 | 0.00 | 0.00 | 0.00 | 96 | 1011.7 |
| 20260506095238 | 12 | 182 | 1.6 | 1.6 | 0.00 | 0.00 | 0.00 | 96 | 1011.5 |
| 20260506094735 | 13 | 188 | 0.0 | 1.6 | 0.00 | 0.00 | 0.00 | 96 | 1011.5 |
| 20260506094233 | 13 | 197 | 1.6 | 1.6 | 0.00 | 0.00 | 0.00 | 96 | 1011.7 |
| 20260506093732 | 13 | 161 | 1.6 | 1.6 | 0.00 | 0.00 | 0.00 | 96 | 1011.9 |
| 20260506093228 | 13 | 187 | 1.6 | 1.6 | 0.00 | 0.00 | 0.00 | 95 | 1011.7 |
| 20260506092726 | 13 | 177 | 0.0 | 0.0 | 0.00 | 0.00 | 0.00 | 95 | 1011.9 |
| 20260506092224 | 13 | 170 | 1.6 | 1.6 | 0.00 | 0.00 | 0.00 | 95 | 1011.9 |
| 20260506091721 | 13 | 182 | 1.6 | 1.6 | 0.00 | 0.00 | 0.00 | 94 | 1011.8 |
| 20260506091218 | 13 | 197 | 1.6 | 1.6 | 0.00 | 0.00 | 0.00 | 94 | 1012.0 |
| 20260506090716 | 13 | 193 | 1.6 | 1.6 | 0.00 | 0.00 | 0.00 | 94 | 1011.8 |
| 20260506090212 | 13 | 230 | 3.2 | 3.2 | 0.00 | 0.00 | 0.00 | 94 | 1011.9 |
| 20260506085710 | 13 | 187 | 1.6 | 1.6 | 0.00 | 0.00 | 0.00 | 94 | 1011.8 |
| 20260506085205 | 13 | 206 | 1.6 | 1.6 | 0.00 | 0.00 | 0.00 | 94 | 1011.9 |
| 20260506084703 | 13 | 176 | 1.6 | 1.6 | 0.00 | 0.00 | 0.00 | 94 | 1011.9 |
| 20260506084159 | 13 | 351 | 3.2 | 4.8 | 0.00 | 0.00 | 0.00 | 94 | 1012.2 |
| 20260506083656 | 13 | 176 | 3.2 | 3.2 | 0.00 | 0.00 | 0.00 | 94 | 1011.9 |
| 20260506083154 | 13 | 192 | 0.0 | 0.0 | 0.00 | 0.00 | 0.00 | 94 | 1012.0 |
| 20260506082651 | 13 | 199 | 0.0 | 0.0 | 0.00 | 0.00 | 0.00 | 95 | 1012.1 |
| 20260506082151 | 13 | 189 | 0.0 | 0.0 | 0.00 | 0.00 | 0.00 | 95 | 1012.3 |
| 20260506081649 | 13 | 189 | 0.0 | 0.0 | 0.00 | 0.00 | 0.00 | 95 | 1012.6 |
| 20260506081147 | 13 | 193 | 0.0 | 1.6 | 0.00 | 0.00 | 0.00 | 95 | 1012.4 |
| 20260506080644 | 13 | 171 | 1.6 | 1.6 | 0.00 | 0.00 | 0.00 | 95 | 1012.4 |
| 20260506080141 | 13 | 193 | 0.0 | 0.0 | 0.00 | 0.00 | 0.00 | 96 | 1011.9 |
| 20260506073125 | 13 | 193 | 0.0 | 0.0 | 0.00 | 0.00 | 0.00 | 94 | 1012.9 |
| 20260506072621 | 13 | 196 | 0.0 | 0.0 | 0.00 | 0.00 | 0.00 | 94 | 1012.6 |
| 20260506072119 | 13 | 205 | 1.6 | 1.6 | 0.00 | 0.00 | 0.00 | 94 | 1012.8 |
| 20260506071617 | 13 | 203 | 0.0 | 0.0 | 0.00 | 0.00 | 0.00 | 94 | 1012.5 |
| 20260506071114 | 13 | 203 | 0.0 | 0.0 | 0.00 | 0.00 | 0.00 | 94 | 1012.4 |
| 20260506070611 | 14 | 199 | 0.0 | 0.0 | 0.00 | 0.00 | 0.00 | 93 | 1012.3 |
| 20260506070108 | 14 | 202 | 0.0 | 0.0 | 0.00 | 0.00 | 0.00 | 93 | 1012.4 |
| 20260506062045 | 15 | 201 | 0.0 | 0.0 | 0.00 | 0.00 | 0.00 | 90 | 1012.8 |
| 20260506061541 | 15 | 201 | 0.0 | 0.0 | 0.00 | 0.00 | 0.00 | 90 | 1012.9 |
| 20260506061039 | 15 | 201 | 0.0 | 0.0 | 0.00 | 0.00 | 0.00 | 89 | 1012.5 |
| 20260506060537 | 15 | 201 | 0.0 | 0.0 | 0.00 | 0.00 | 0.00 | 89 | 1012.8 |
| 20260506051006 | 15 | 190 | 0.0 | 0.0 | 0.00 | 0.00 | 0.00 | 81 | 1012.6 |
| 20260506050504 | 16 | 190 | 0.0 | 0.0 | 0.00 | 0.00 | 0.00 | 80 | 1012.5 |
| 20260506044954 | 17 | 196 | 0.0 | 0.0 | 0.00 | 0.00 | 0.00 | 76 | 1012.7 |
| 20260506044452 | 17 | 298 | 3.2 | 4.8 | 0.00 | 0.00 | 0.00 | 75 | 1013.2 |
| 20260506043948 | 17 | 245 | 3.2 | 3.2 | 0.00 | 0.00 | 0.00 | 76 | 1013.1 |
| 20260506043446 | 17 | 197 | 0.0 | 0.0 | 0.00 | 0.00 | 0.00 | 77 | 1013.2 |
| 20260506042944 | 17 | 218 | 4.8 | 4.8 | 0.00 | 0.00 | 0.00 | 77 | 1013.1 |
| 20260506042443 | 17 | 201 | 1.6 | 1.6 | 0.00 | 0.00 | 0.00 | 79 | 1013.2 |
| 20260506041940 | 17 | 197 | 1.6 | 3.2 | 0.00 | 0.00 | 0.00 | 81 | 1013.0 |
| 20260506041438 | 17 | 210 | 0.0 | 1.6 | 0.00 | 0.00 | 0.00 | 81 | 1012.8 |
| 20260506040935 | 17 | 200 | 1.6 | 1.6 | 0.00 | 0.00 | 0.00 | 81 | 1012.5 |
| 20260506040433 | 16 | 222 | 1.6 | 3.2 | 0.00 | 0.00 | 0.00 | 82 | 1012.6 |
| 20260506035928 | 16 | 201 | 0.0 | 0.0 | 0.00 | 0.15 | 0.15 | 83 | 1012.5 |
| 20260506035426 | 16 | 205 | 0.0 | 0.0 | 0.00 | 0.15 | 0.15 | 84 | 1013.0 |
| 20260506034923 | 16 | 205 | 0.0 | 0.0 | 0.00 | 0.15 | 0.15 | 85 | 1013.0 |
| 20260506034420 | 16 | 189 | 0.0 | 0.0 | 0.00 | 0.15 | 0.15 | 84 | 1013.0 |
| 20260506033917 | 16 | 189 | 0.0 | 0.0 | 0.00 | 0.15 | 0.15 | 84 | 1012.8 |
| 20260506033414 | 17 | 200 | 0.0 | 0.0 | 0.00 | 0.15 | 0.15 | 83 | 1012.6 |
| 20260506032911 | 17 | 196 | 0.0 | 0.0 | 0.00 | 0.15 | 0.15 | 83 | 1012.6 |
| 20260506032408 | 17 | 200 | 1.6 | 1.6 | 0.00 | 0.15 | 0.15 | 83 | 1012.6 |
| 20260506031905 | 16 | 202 | 0.0 | 0.0 | 0.00 | 0.15 | 0.15 | 84 | 1012.6 |
| 20260506031402 | 16 | 196 | 0.0 | 0.0 | 0.00 | 0.15 | 0.15 | 84 | 1012.5 |
| 20260506030859 | 16 | 200 | 0.0 | 1.6 | 0.00 | 0.15 | 0.15 | 84 | 1012.7 |
| 20260506030358 | 16 | 213 | 0.0 | 0.0 | 0.00 | 0.15 | 0.15 | 84 | 1012.6 |
| 20260506025854 | 17 | 191 | 0.0 | 0.0 | 0.00 | 0.15 | 0.15 | 83 | 1012.2 |
| 20260506025351 | 16 | 192 | 0.0 | 1.6 | 0.00 | 0.15 | 0.15 | 83 | 1012.0 |
| 20260506024848 | 16 | 202 | 0.0 | 0.0 | 0.00 | 0.15 | 0.15 | 83 | 1012.5 |
| 20260506024345 | 17 | 202 | 0.0 | 0.0 | 0.00 | 0.15 | 0.15 | 83 | 1012.4 |
| 20260506023840 | 17 | 194 | 0.0 | 0.0 | 0.00 | 0.15 | 0.15 | 83 | 1012.1 |
| 20260506023337 | 17 | 194 | 0.0 | 1.6 | 0.00 | 0.15 | 0.15 | 82 | 1011.8 |
| 20260506022834 | 17 | 187 | 0.0 | 0.0 | 0.00 | 0.15 | 0.15 | 82 | 1011.7 |
| 20260506022332 | 17 | 188 | 0.0 | 0.0 | 0.00 | 0.15 | 0.15 | 82 | 1012.0 |
| 20260506021830 | 17 | 196 | 0.0 | 0.0 | 0.00 | 0.15 | 0.15 | 81 | 1012.1 |
| 20260506021327 | 17 | 193 | 0.0 | 0.0 | 0.00 | 0.15 | 0.15 | 80 | 1012.1 |
| 20260506020823 | 17 | 180 | 1.6 | 3.2 | 0.00 | 0.15 | 0.15 | 80 | 1012.1 |
| 20260506020321 | 17 | 187 | 1.6 | 1.6 | 0.00 | 0.15 | 0.15 | 80 | 1011.8 |
| 20260506015819 | 17 | 192 | 0.0 | 1.6 | 0.00 | 0.15 | 0.15 | 81 | 1011.8 |
| 20260506015316 | 17 | 201 | 0.0 | 0.0 | 0.00 | 0.15 | 0.15 | 80 | 1011.9 |
| 20260506014812 | 17 | 196 | 0.0 | 0.0 | 0.00 | 0.15 | 0.15 | 80 | 1011.9 |
| 20260506014309 | 17 | 189 | 0.0 | 0.0 | 0.00 | 0.15 | 0.15 | 80 | 1011.6 |
| 20260506013806 | 17 | 183 | 1.6 | 1.6 | 0.00 | 0.15 | 0.15 | 80 | 1011.7 |
| 20260506013303 | 17 | 195 | 1.6 | 1.6 | 0.00 | 0.15 | 0.15 | 80 | 1011.5 |
| 20260506012800 | 17 | 190 | 0.0 | 0.0 | 0.00 | 0.15 | 0.15 | 80 | 1011.6 |
| 20260506012257 | 17 | 175 | 0.0 | 0.0 | 0.00 | 0.15 | 0.15 | 79 | 1011.3 |
| 20260506011754 | 17 | 196 | 0.0 | 0.0 | 0.00 | 0.15 | 0.15 | 78 | 1011.4 |
| 20260506011250 | 17 | 192 | 0.0 | 0.0 | 0.00 | 0.15 | 0.15 | 78 | 1011.5 |
| 20260506010749 | 17 | 188 | 0.0 | 0.0 | 0.00 | 0.15 | 0.15 | 77 | 1011.4 |
| 20260506010246 | 17 | 183 | 1.6 | 1.6 | 0.00 | 0.15 | 0.15 | 77 | 1011.6 |
| 20260506005743 | 17 | 190 | 1.6 | 1.6 | 0.00 | 0.15 | 0.15 | 77 | 1011.3 |
| 20260506005239 | 17 | 181 | 0.0 | 1.6 | 0.00 | 0.15 | 0.15 | 77 | 1011.1 |
| 20260506004735 | 17 | 194 | 0.0 | 0.0 | 0.00 | 0.15 | 0.15 | 76 | 1010.8 |
| 20260506004233 | 17 | 194 | 0.0 | 0.0 | 0.00 | 0.15 | 0.15 | 77 | 1010.7 |
| 20260506003729 | 17 | 189 | 0.0 | 0.0 | 0.00 | 0.15 | 0.15 | 76 | 1010.6 |
| 20260506003226 | 17 | 188 | 1.6 | 1.6 | 0.00 | 0.15 | 0.15 | 75 | 1010.6 |
| 20260506002721 | 17 | 189 | 0.0 | 1.6 | 0.00 | 0.15 | 0.15 | 75 | 1010.7 |
| 20260506002218 | 17 | 189 | 0.0 | 0.0 | 0.00 | 0.15 | 0.15 | 74 | 1010.5 |
| 20260506001714 | 18 | 181 | 1.6 | 1.6 | 0.00 | 0.15 | 0.15 | 74 | 1010.4 |
| 20260506001212 | 18 | 193 | 0.0 | 0.0 | 0.00 | 0.15 | 0.15 | 73 | 1010.4 |
| 20260506000708 | 18 | 193 | 0.0 | 0.0 | 0.00 | 0.15 | 0.15 | 72 | 1010.4 |
| 20260506000206 | 18 | 192 | 0.0 | 0.0 | 0.00 | 0.15 | 0.15 | 70 | 1010.4 |
| 20260505235703 | 19 | 192 | 0.0 | 0.0 | 0.00 | 0.15 | 0.15 | 69 | 1010.4 |
| 20260505235201 | 19 | 177 | 1.6 | 1.6 | 0.00 | 0.15 | 0.15 | 67 | 1010.6 |
| 20260505234657 | 20 | 230 | 3.2 | 3.2 | 0.00 | 0.15 | 0.15 | 66 | 1010.2 |
| 20260505234155 | 20 | 224 | 4.8 | 8.0 | 0.00 | 0.15 | 0.15 | 66 | 1010.2 |
| 20260505233651 | 20 | 212 | 1.6 | 3.2 | 0.00 | 0.15 | 0.15 | 66 | 1010.1 |
| 20260505233149 | 20 | 201 | 1.6 | 1.6 | 0.00 | 0.15 | 0.15 | 65 | 1010.2 |
| 20260505232646 | 20 | 280 | 6.4 | 9.7 | 0.00 | 0.15 | 0.15 | 64 | 1009.7 |
| 20260505232144 | 20 | 238 | 6.4 | 8.0 | 0.00 | 0.15 | 0.15 | 65 | 1009.9 |
| 20260505231640 | 20 | 299 | 6.4 | 8.0 | 0.00 | 0.15 | 0.15 | 64 | 1010.0 |
| 20260505231139 | 20 | 199 | 3.2 | 3.2 | 0.00 | 0.15 | 0.15 | 65 | 1009.7 |
| 20260505230637 | 20 | 241 | 4.8 | 9.7 | 0.00 | 0.15 | 0.15 | 65 | 1009.9 |
| 20260505230133 | 20 | 213 | 4.8 | 4.8 | 0.00 | 0.15 | 0.15 | 66 | 1009.5 |
| 20260505225629 | 20 | 213 | 4.8 | 9.7 | 0.00 | 0.15 | 0.15 | 67 | 1009.7 |
| 20260505225125 | 20 | 179 | 1.6 | 3.2 | 0.00 | 0.15 | 0.15 | 67 | 1009.9 |
| 20260505224622 | 20 | 193 | 6.4 | 8.0 | 0.00 | 0.15 | 0.15 | 66 | 1009.6 |
| 20260505224120 | 20 | 193 | 6.4 | 8.0 | 0.00 | 0.15 | 0.15 | 64 | 1009.8 |
| 20260505223617 | 20 | 204 | 6.4 | 11.3 | 0.00 | 0.15 | 0.15 | 63 | 1009.9 |
| 20260505223113 | 20 | 179 | 12.9 | 20.9 | 0.00 | 0.15 | 0.15 | 64 | 1010.0 |
| 20260505222610 | 20 | 229 | 8.0 | 9.7 | 0.00 | 0.15 | 0.15 | 65 | 1010.0 |
| 20260505222106 | 20 | 149 | 11.3 | 17.7 | 0.00 | 0.15 | 0.15 | 63 | 1009.9 |
| 20260505221603 | 20 | 237 | 12.9 | 17.7 | 0.00 | 0.15 | 0.15 | 61 | 1009.6 |
| 20260505221059 | 20 | 210 | 8.0 | 11.3 | 0.00 | 0.15 | 0.15 | 61 | 1009.1 |
| 20260505220556 | 20 | 220 | 4.8 | 11.3 | 0.00 | 0.15 | 0.15 | 63 | 1009.2 |
| 20260505220054 | 20 | 209 | 8.0 | 11.3 | 0.00 | 0.15 | 0.15 | 61 | 1009.0 |
| 20260505215552 | 20 | 223 | 17.7 | 22.5 | 0.00 | 0.15 | 0.15 | 60 | 1009.1 |
| 20260505215050 | 20 | 218 | 9.7 | 12.9 | 0.00 | 0.15 | 0.15 | 61 | 1009.0 |
| 20260505214548 | 20 | 230 | 11.3 | 20.9 | 0.00 | 0.15 | 0.15 | 61 | 1008.6 |
| 20260505214044 | 20 | 229 | 11.3 | 14.5 | 0.00 | 0.15 | 0.15 | 63 | 1008.9 |
| 20260505213542 | 20 | 217 | 6.4 | 9.7 | 0.00 | 0.15 | 0.15 | 66 | 1009.0 |
| 20260505213038 | 19 | 305 | 8.0 | 14.5 | 0.00 | 0.15 | 0.15 | 67 | 1008.6 |
| 20260505212535 | 20 | 295 | 11.3 | 16.1 | 0.00 | 0.15 | 0.15 | 66 | 1009.0 |
| 20260505212032 | 20 | 263 | 6.4 | 8.0 | 0.00 | 0.15 | 0.15 | 64 | 1009.3 |
| 20260505211529 | 20 | 242 | 8.0 | 11.3 | 0.00 | 0.15 | 0.15 | 65 | 1009.4 |
| 20260505211026 | 20 | 220 | 4.8 | 8.0 | 0.00 | 0.15 | 0.15 | 65 | 1009.6 |
| 20260505210523 | 20 | 244 | 8.0 | 12.9 | 0.00 | 0.15 | 0.15 | 65 | 1009.4 |
| 20260505210020 | 21 | 167 | 12.9 | 16.1 | 0.00 | 0.15 | 0.15 | 64 | 1009.5 |
| 20260505205518 | 21 | 117 | 4.8 | 4.8 | 0.00 | 0.15 | 0.15 | 63 | 1009.3 |
| 20260505205014 | 21 | 280 | 14.5 | 17.7 | 0.00 | 0.15 | 0.15 | 62 | 1009.3 |
| 20260505204512 | 21 | 212 | 9.7 | 17.7 | 0.00 | 0.15 | 0.15 | 63 | 1009.1 |
| 20260505204009 | 21 | 211 | 4.8 | 4.8 | 0.00 | 0.15 | 0.15 | 63 | 1008.5 |
| 20260505203506 | 22 | 266 | 12.9 | 17.7 | 0.00 | 0.15 | 0.15 | 61 | 1008.3 |
| 20260505203003 | 22 | 211 | 8.0 | 12.9 | 0.00 | 0.15 | 0.15 | 60 | 1008.1 |
| 20260505202459 | 22 | 236 | 4.8 | 4.8 | 0.00 | 0.15 | 0.15 | 61 | 1008.2 |
| 20260505201955 | 21 | 199 | 6.4 | 9.7 | 0.00 | 0.15 | 0.15 | 64 | 1008.0 |
| 20260505201452 | 21 | 216 | 3.2 | 3.2 | 0.00 | 0.15 | 0.15 | 66 | 1007.9 |
| 20260505200949 | 20 | 212 | 3.2 | 3.2 | 0.00 | 0.15 | 0.15 | 70 | 1007.8 |
| 20260505200447 | 19 | 106 | 3.2 | 3.2 | 0.00 | 0.15 | 0.15 | 71 | 1007.3 |
| 20260505195943 | 18 | 200 | 0.0 | 0.0 | 0.00 | 0.15 | 0.15 | 73 | 1007.9 |
| 20260505195440 | 19 | 186 | 4.8 | 8.0 | 0.00 | 0.15 | 0.15 | 73 | 1009.1 |
| 20260505194937 | 19 | 292 | 17.7 | 24.1 | 0.00 | 0.15 | 0.15 | 72 | 1009.4 |
| 20260505194435 | 20 | 197 | 4.8 | 9.7 | 0.00 | 0.15 | 0.15 | 71 | 1009.6 |
| 20260505193934 | 20 | 212 | 3.2 | 4.8 | 0.18 | 0.15 | 0.15 | 69 | 1009.5 |
| 20260505193432 | 20 | 215 | 8.0 | 11.3 | 0.18 | 0.15 | 0.15 | 70 | 1009.0 |
| 20260505192930 | 20 | 304 | 4.8 | 4.8 | 0.13 | 0.13 | 0.13 | 68 | 1009.3 |